Location: Lafig�re
(44.4503°N, 4.0357°E)
Time: 01:41:13
(UTC+00:00)

Transit 4A - Pass Details

Date: 28 January 2021
Orbit: 866 x 979 km, 66.8° (Epoch: 24 February)

Event Time Altitude Azimuth Distance (km) Brightness Sun altitude
Rises 16:30:00 0° 172° (S) 3,657 11.3 2.0°
Reaches altitude 10° 16:33:00 10° 159° (SSE) 2,719 10.5 1.5°
Maximum altitude 16:38:02 25° 107° (ESE) 1,851 9.1 0.7°
Drops below altitude 10° 16:43:05 10° 54° (NE) 2,724 9.7 -0.1°
Sets 16:46:03 0° 42° (NE) 3,666 10.4 -0.6°
